Weather History for Florala, AL

Change the Weather History Date:

Sunday, October 27, 2013

  Actual Average (KCEW) Record (KCEW)
Temperature  
Mean Temperature 58 °F -  
Max Temperature 73 °F 77 °F 87 °F (2010)
Min Temperature 44 °F 46 °F 33 °F (1982)
Degree Days  
Heating Degree Days 6    
Growing Degree Days 8 (Base 50)    
Moisture  
Dew Point 48 °F    
Average Humidity 72    
Maximum Humidity 93    
Minimum Humidity 39    
Precipitation  
Precipitation 0.00 in - - ()
Sea Level Pressure  
Sea Level Pressure 30.16 in    
Wind  
Wind Speed 1 mph (SSE)    
Max Wind Speed 5 mph    
Max Gust Speed -    
Visibility 10 miles    
Events Rain    
Averages and records for this station are not official NWS values.
T = Trace of Precipitation, MM = Missing Value Source: NWS Daily Summary

Daily Weather History Graph

Daily Weather History Graph

Search for Another Location

Airport:

Trip Planner

Search our weather history database for the weather conditions in past years. The results will help you decide how hot, cold, wet, or windy it might be!

Date:

Astronomy

Oct. 27, 2013 Rise Set
Actual Time 6:56 AM CDT 6:00 PM CDT
Civil Twilight 6:32 AM CDT 6:25 PM CDT
Nautical Twilight 6:03 AM CDT 6:54 PM CDT
Astronomical Twilight 5:35 AM CDT 7:22 PM CDT
Moon 12:19 AM CDT (10/27) 1:45 PM CDT (10/27)
Length of Visible Light 11h 53m
Length of Day
11h 04m
Last Quarter, 43% of the Moon is Illuminated
Oct 27
Last Quarter
Nov 3
New
Nov 9
First Quarter
Nov 17
Full
Nov 25
Last Quarter

Hourly Weather History & Observations

Time (CDT) Temp. Dew Point Humidity Pressure Visibility Wind Dir Wind Speed Gust Speed Precip Events Conditions
12:58 AM 45.0 °F 42.1 °F 90% 30.17 in 10.0 mi Calm Calm - N/A   Clear
1:58 AM 44.1 °F 41.0 °F 89% 30.16 in 10.0 mi Calm Calm - N/A   Clear
2:58 AM 44.1 °F 41.0 °F 89% 30.14 in 10.0 mi Calm Calm - N/A   Clear
3:58 AM 44.1 °F 41.0 °F 89% 30.15 in 10.0 mi Calm Calm - N/A   Clear
4:58 AM 44.1 °F 42.1 °F 93% 30.15 in 10.0 mi Calm Calm - N/A   Clear
5:58 AM 44.1 °F 42.1 °F 93% 30.16 in 10.0 mi Calm Calm - N/A   Clear
6:58 AM 44.1 °F 42.1 °F 93% 30.17 in 10.0 mi Calm Calm - N/A   Clear
7:58 AM 48.9 °F 46.0 °F 90% 30.18 in 10.0 mi Calm Calm - N/A   Clear
8:58 AM 55.9 °F 45.0 °F 67% 30.20 in 10.0 mi SSE 4.6 mph - 0.00 in Rain Light Rain
9:58 AM 63.0 °F 44.1 °F 50% 30.21 in 10.0 mi South 3.5 mph - 0.00 in   Clear
10:58 AM 66.9 °F 42.1 °F 40% 30.21 in 10.0 mi Variable 3.5 mph - N/A   Clear
11:58 AM 70.0 °F 45.0 °F 41% 30.19 in 10.0 mi ESE 3.5 mph - N/A   Clear
12:58 PM 73.0 °F 46.9 °F 39% 30.15 in 10.0 mi Calm Calm - N/A   Clear
1:58 PM 73.9 °F 48.0 °F 40% 30.13 in 10.0 mi Calm Calm - N/A   Clear
2:58 PM 73.0 °F 48.0 °F 41% 30.13 in 10.0 mi Calm Calm - N/A   Clear
3:58 PM 73.0 °F 48.0 °F 41% 30.12 in 10.0 mi Calm Calm - N/A   Clear
4:58 PM 70.0 °F 55.9 °F 61% 30.12 in 10.0 mi Calm Calm - N/A   Clear
5:58 PM 66.0 °F 57.0 °F 73% 30.12 in 10.0 mi Calm Calm - N/A   Clear
6:58 PM 63.0 °F 57.0 °F 81% 30.13 in 10.0 mi Calm Calm - N/A   Clear
7:58 PM 60.1 °F 55.9 °F 86% 30.16 in 10.0 mi Calm Calm - N/A   Clear
8:58 PM 60.1 °F 55.9 °F 86% 30.15 in 10.0 mi Calm Calm - N/A   Clear
9:58 PM 60.1 °F 55.9 °F 86% 30.16 in 10.0 mi Calm Calm - N/A   Scattered Clouds
10:58 PM 59.0 °F 55.0 °F 87% 30.16 in 10.0 mi Calm Calm - N/A   Mostly Cloudy
11:58 PM 55.9 °F 53.1 °F 90% 30.16 in 10.0 mi Calm Calm - 0.00 in   Scattered Clouds